GW7927 Weather Reports


time (UTC)temp
F
wind
direction
speed
knots
gust
knots
rain 1hr
in
rain 24hr
in
rain mn
in
humidity
%
barometer
mb
20260904222611 81 297 0.0 0.0 0.00 0.00 0.00 63 999.6
20260904222110 81 50 0.0 0.0 0.00 0.00 0.00 63 999.5
20260904221610 81 37 0.0 0.0 0.00 0.00 0.00 63 999.7
20260904221111 81 242 0.0 0.0 0.00 0.00 0.00 63 999.4
20260904220610 81 315 0.0 0.0 0.00 0.00 0.00 63 999.5
20260904220110 81 230 0.0 0.0 0.00 0.00 0.00 63 999.4
20260904215610 81 242 0.0 0.0 0.00 0.00 0.00 63 999.4
20260904215121 81 135 0.0 0.0 0.00 0.00 0.00 63 999.3
20260904214610 81 315 0.0 0.0 0.00 0.00 0.00 63 999.5
20260904214110 81 313 0.0 0.0 0.00 0.00 0.00 63 999.5
20260904213611 81 62 0.0 0.0 0.00 0.00 0.00 63 999.5
20260904213110 81 224 0.0 0.0 0.00 0.00 0.00 63 999.2
20260904212610 81 104 0.0 0.0 0.00 0.00 0.00 63 999.4
20260904212111 81 50 0.0 0.0 0.00 0.00 0.00 63 999.3
20260904211611 81 44 0.0 0.0 0.00 0.00 0.00 63 999.3
20260904211110 81 309 0.0 0.0 0.00 0.00 0.00 63 999.2
20260904210610 81 44 0.0 0.0 0.00 0.00 0.00 63 999.3
20260904210110 81 255 0.0 0.0 0.00 0.00 0.00 63 999.3
20260904205612 81 322 0.0 0.0 0.00 0.00 0.00 63 999.1
20260904205110 81 315 0.0 0.0 0.00 0.00 0.00 63 999.2
20260904204610 81 284 0.0 0.0 0.00 0.00 0.00 63 999.3
20260904204110 81 264 0.0 0.0 0.00 0.00 0.00 63 999.2
20260904203611 81 224 0.0 0.0 0.00 0.00 0.00 63 999.1
20260904203110 81 309 0.0 0.0 0.00 0.00 0.00 63 999.3
20260904202611 81 283 0.0 0.0 0.00 0.00 0.00 63 999.1
20260904202110 81 224 0.0 0.0 0.00 0.00 0.00 63 999.2
20260904201612 81 311 0.0 0.0 0.00 0.00 0.00 63 999.1
20260904201110 81 224 0.0 0.0 0.00 0.00 0.00 63 999.1
20260904200610 81 224 0.0 0.0 0.00 0.00 0.00 63 999.2
20260904200110 81 89 0.0 0.0 0.00 0.00 0.00 63 999.1
20260904195612 81 230 0.0 0.0 0.00 0.00 0.00 63 999.1
20260904195110 81 322 0.0 0.0 0.00 0.00 0.00 63 999.0
20260904194610 81 182 0.0 0.0 0.00 0.00 0.00 63 998.9
20260904194110 81 304 0.0 0.0 0.00 0.00 0.00 63 999.0
20260904193611 81 284 0.0 0.0 0.00 0.00 0.00 63 999.1
20260904193110 81 302 0.0 0.0 0.00 0.00 0.00 62 999.0
20260904192610 81 316 0.0 0.0 0.00 0.00 0.00 63 998.9
20260904192111 80 135 0.0 0.0 0.00 0.00 0.00 62 999.0
20260904191611 80 315 0.0 0.0 0.00 0.00 0.00 62 999.0
20260904191111 80 315 0.0 0.0 0.00 0.00 0.00 62 998.9
20260904190611 80 297 0.0 0.0 0.00 0.00 0.00 62 998.8
20260904190110 80 246 0.0 0.0 0.00 0.00 0.00 62 998.8
20260904185611 80 315 0.0 0.0 0.00 0.00 0.00 62 998.7
20260904185111 80 242 0.0 0.0 0.00 0.00 0.00 62 998.7
20260904184610 80 242 0.0 0.0 0.00 0.00 0.00 62 998.6
20260904184110 80 333 0.0 0.0 0.00 0.00 0.00 62 998.8
20260904183612 80 315 0.0 0.0 0.00 0.00 0.00 62 998.8
20260904183111 80 284 0.0 0.0 0.00 0.00 0.00 62 998.8
20260904182611 80 293 0.0 0.0 0.00 0.00 0.00 62 998.8
20260904182111 80 242 0.0 0.0 0.00 0.00 0.00 62 998.8
20260904181611 80 230 0.0 0.0 0.00 0.00 0.00 62 998.8
20260904181110 80 333 0.0 0.0 0.00 0.00 0.00 62 998.9
20260904180611 80 246 0.0 0.0 0.00 0.00 0.00 61 999.0
20260904180110 80 322 0.0 0.0 0.00 0.00 0.00 61 999.0
20260904175611 80 129 0.0 0.0 0.00 0.00 0.00 61 999.0
20260904175111 80 322 0.0 0.0 0.00 0.00 0.00 61 999.1
20260904174611 80 217 0.0 0.0 0.00 0.00 0.00 61 999.1
20260904174111 80 217 0.0 0.0 0.00 0.00 0.00 61 999.3
20260904173611 80 40 0.0 0.0 0.00 0.00 0.00 61 999.2
20260904173111 80 75 0.0 0.0 0.00 0.00 0.00 61 999.1
20260904172610 80 304 0.0 0.0 0.00 0.00 0.00 61 999.3
20260904172111 80 44 0.0 0.0 0.00 0.00 0.00 61 999.2
20260904171612 80 292 0.0 0.0 0.00 0.00 0.00 61 999.3
20260904171111 80 315 0.0 0.0 0.00 0.00 0.00 61 999.0
20260904170611 80 283 0.0 0.0 0.00 0.00 0.00 61 999.4
20260904170110 80 322 0.0 0.0 0.00 0.00 0.00 61 999.5
20260904165612 80 309 0.0 0.0 0.00 0.00 0.00 61 999.4
20260904165110 80 322 0.0 0.0 0.00 0.00 0.00 61 999.5
20260904164611 80 315 0.0 0.0 0.00 0.00 0.00 61 999.5
20260904164111 80 37 0.0 0.0 0.00 0.00 0.00 61 999.6
20260904163612 80 62 0.0 0.0 0.00 0.00 0.00 61 999.5
20260904163111 80 297 0.0 0.0 0.00 0.00 0.00 61 999.5
20260904162611 80 44 0.0 0.0 0.00 0.00 0.00 60 999.5
20260904162110 80 315 0.0 0.0 0.00 0.00 0.00 60 999.3
20260904161612 80 62 0.0 0.0 0.00 0.00 0.00 60 999.4
20260904161111 80 50 0.0 0.0 0.00 0.00 0.00 60 999.3
20260904160610 80 44 0.0 0.0 0.00 0.00 0.00 60 999.4
20260904160111 80 321 0.0 0.0 0.00 0.00 0.00 59 999.6
20260904155611 80 243 0.0 0.0 0.00 0.00 0.00 59 999.4
20260904155110 80 297 0.0 0.0 0.00 0.00 0.00 59 999.5
20260904154611 80 284 0.0 0.0 0.00 0.00 0.00 59 999.6
20260904154111 80 322 0.0 0.0 0.00 0.00 0.00 58 999.7
20260904153612 80 224 0.0 0.0 0.00 0.00 0.00 58 999.7
20260904153111 80 129 0.0 0.0 0.00 0.00 0.00 58 999.6
20260904152611 80 255 0.0 0.0 0.00 0.00 0.00 57 999.5
20260904152111 79 309 0.0 0.0 0.00 0.00 0.00 57 999.6
20260904151612 79 309 0.0 0.0 0.00 0.00 0.00 57 999.7
20260904151111 79 224 0.0 0.0 0.00 0.00 0.00 57 999.5
20260904150611 79 284 0.0 0.0 0.00 0.00 0.00 57 999.6
20260904150111 79 315 0.0 0.0 0.00 0.00 0.00 57 999.8
20260904145612 79 135 0.0 0.0 0.00 0.00 0.00 56 999.7
20260904145111 79 315 0.0 0.0 0.00 0.00 0.00 57 999.7
20260904144612 79 304 0.0 0.0 0.00 0.00 0.00 56 999.8
20260904144111 79 242 0.0 0.0 0.00 0.00 0.00 56 1000.0
20260904143612 79 309 0.0 0.0 0.00 0.00 0.00 56 1000.0
20260904143112 79 283 0.0 0.0 0.00 0.00 0.00 56 999.9
20260904142611 79 315 0.0 0.0 0.00 0.00 0.00 56 999.9
20260904142111 79 230 0.0 0.0 0.00 0.00 0.00 56 999.9
20260904141612 79 322 0.0 0.0 0.00 0.00 0.00 56 999.9
20260904141111 79 297 0.0 0.0 0.00 0.00 0.00 56 999.8
20260904140611 79 309 0.0 0.0 0.00 0.00 0.00 56 999.7
20260904140111 79 249 0.0 0.0 0.00 0.00 0.00 56 999.6
20260904135612 79 315 0.0 0.0 0.00 0.00 0.00 56 1000.0
20260904135112 79 322 0.0 0.0 0.00 0.00 0.00 56 999.9
20260904134610 79 249 0.0 0.0 0.00 0.00 0.00 56 999.6
20260904134111 79 50 0.0 0.0 0.00 0.00 0.00 56 999.7
20260904133612 79 269 0.0 0.0 0.00 0.00 0.00 56 999.6
20260904133111 79 217 0.0 0.0 0.00 0.00 0.00 56 999.6
20260904132610 79 309 0.0 0.0 0.00 0.00 0.00 56 999.6
20260904132110 78 326 0.0 0.0 0.00 0.00 0.00 56 999.5
20260904131612 78 269 0.0 0.0 0.00 0.00 0.00 55 999.4
20260904131110 78 269 0.0 0.0 0.00 0.00 0.00 55 999.2
20260904130611 78 255 0.0 0.0 0.00 0.00 0.00 55 999.4
20260904130111 78 309 0.0 0.0 0.00 0.00 0.00 55 999.3
20260904125612 78 309 0.0 0.0 0.00 0.00 0.00 55 999.2
20260904125111 78 299 0.0 0.0 0.00 0.00 0.00 55 999.2
20260904124611 78 315 0.0 0.0 0.00 0.00 0.00 55 999.3
20260904124111 78 315 0.0 0.0 0.00 0.00 0.00 55 999.1
20260904123613 78 333 0.0 0.0 0.00 0.00 0.00 55 999.0
20260904123111 78 309 0.0 0.0 0.00 0.00 0.00 55 999.0
20260904122611 78 312 0.0 0.0 0.00 0.00 0.00 54 998.8
20260904122111 78 224 0.0 0.0 0.00 0.00 0.00 54 998.8
20260904121612 78 284 0.0 0.0 0.00 0.00 0.00 54 998.5
20260904121111 78 25 0.0 0.0 0.00 0.00 0.00 54 998.7
20260904120613 77 315 0.0 0.0 0.00 0.00 0.00 53 998.5
20260904120111 77 235 0.0 0.0 0.00 0.00 0.00 53 998.4
20260904115612 77 309 0.0 0.0 0.00 0.00 0.00 53 998.4
20260904115112 77 297 0.0 0.0 0.00 0.00 0.00 53 998.3
20260904114611 77 284 0.0 0.0 0.00 0.00 0.00 52 998.2
20260904114111 77 31 0.0 0.0 0.00 0.00 0.00 52 998.2
20260904113612 77 315 0.0 0.0 0.00 0.00 0.00 52 998.1
20260904113111 78 297 0.0 0.0 0.00 0.00 0.00 51 997.9
20260904112611 78 309 0.0 0.0 0.00 0.00 0.00 52 998.0
20260904112111 78 309 0.0 0.0 0.00 0.00 0.00 51 998.1
20260904111612 78 284 0.0 0.0 0.00 0.00 0.00 51 997.9
20260904111111 78 242 0.0 0.0 0.00 0.00 0.00 51 997.8
20260904110611 78 44 0.0 0.0 0.00 0.00 0.00 51 997.8
20260904110111 78 297 0.0 0.0 0.00 0.00 0.00 51 997.8
20260904105612 78 307 0.0 0.0 0.00 0.00 0.00 51 997.7
20260904105111 78 326 0.0 0.0 0.00 0.00 0.00 51 997.6
20260904104611 78 62 0.0 0.0 0.00 0.00 0.00 50 997.5
20260904104111 78 297 0.0 0.0 0.00 0.00 0.00 50 997.4
20260904103613 78 30 0.0 0.0 0.00 0.00 0.00 50 997.5
20260904103111 78 142 0.0 0.0 0.00 0.00 0.00 50 997.4
20260904102611 78 315 0.0 0.0 0.00 0.00 0.00 50 997.2
20260904102111 78 43 0.0 0.0 0.00 0.00 0.00 50 997.5
20260904101612 78 304 0.0 0.0 0.00 0.00 0.00 50 997.4
20260904101112 78 75 0.0 0.0 0.00 0.00 0.00 50 997.4
20260904100610 78 283 0.0 0.0 0.00 0.00 0.00 50 997.2
20260904100110 78 306 0.0 0.0 0.00 0.00 0.00 50 997.3
20260904095611 78 297 0.0 0.0 0.00 0.00 0.00 50 997.2
20260904095111 78 269 0.0 0.0 0.00 0.00 0.00 50 997.1
20260904094610 78 284 0.0 0.0 0.00 0.00 0.00 51 997.1
20260904094110 78 269 0.0 0.0 0.00 0.00 0.00 51 997.2
20260904093610 78 315 0.0 0.0 0.00 0.00 0.00 51 997.0
20260904093110 78 269 0.0 0.0 0.00 0.00 0.00 51 997.1
20260904092610 78 315 0.0 0.0 0.00 0.00 0.00 51 996.9
20260904092110 78 299 0.0 0.0 0.00 0.00 0.00 51 996.9
20260904091111 78 283 0.0 0.0 0.00 0.00 0.00 51 996.8
20260904090611 78 309 0.0 0.0 0.00 0.00 0.00 51 996.7
20260904090111 78 235 0.0 0.0 0.00 0.00 0.00 51 996.8
20260904085611 78 299 0.0 0.0 0.00 0.00 0.00 51 996.6
20260904085111 78 22 0.0 0.0 0.00 0.00 0.00 51 996.6
20260904084615 78 275 0.0 0.0 0.00 0.00 0.00 51 996.6
20260904084110 78 346 0.0 0.0 0.00 0.00 0.00 51 996.6
20260904083610 78 44 0.0 0.0 0.00 0.00 0.00 51 996.5
20260904083110 78 339 0.0 0.0 0.00 0.00 0.00 51 996.5
20260904082610 78 32 0.0 0.0 0.00 0.00 0.00 51 996.4
20260904082111 78 310 0.0 0.0 0.00 0.00 0.00 51 996.3
20260904081610 78 297 0.0 0.0 0.00 0.00 0.00 51 996.0
20260904081113 78 315 0.0 0.0 0.00 0.00 0.00 51 996.5
20260904080611 78 275 0.0 0.0 0.00 0.00 0.00 51 996.4
20260904080112 78 315 0.0 0.0 0.00 0.00 0.00 52 996.3
20260904074611 78 37 0.0 0.0 0.00 0.00 0.00 52 996.4
20260904074112 78 257 0.0 0.0 0.00 0.00 0.00 52 996.3
20260904073610 78 255 0.0 0.0 0.00 0.00 0.00 52 996.3
20260904073111 78 309 0.0 0.0 0.00 0.00 0.00 52 996.1
20260904072611 78 235 0.0 0.0 0.00 0.00 0.00 52 996.3
20260904072111 78 284 0.0 0.0 0.00 0.00 0.00 52 996.4
20260904071611 78 52 0.0 0.0 0.00 0.00 0.00 52 996.2
20260904071111 78 290 0.0 0.0 0.00 0.00 0.00 52 996.4
20260904070611 78 297 0.0 0.0 0.00 0.00 0.00 53 996.2
20260904070111 78 304 0.0 0.0 0.00 0.00 0.00 52 996.2
20260904065611 78 309 0.0 0.0 0.00 0.00 0.00 52 996.3
20260904065111 78 333 0.0 0.0 0.00 0.00 0.00 52 996.2
20260904064611 78 293 0.0 0.0 0.00 0.00 0.00 53 996.2
20260904064116 78 235 0.0 0.0 0.00 0.00 0.00 53 996.2
20260904063611 78 224 0.0 0.0 0.00 0.00 0.00 53 996.3
20260904063111 78 297 0.0 0.0 0.00 0.00 0.00 53 996.3
20260904062611 78 282 0.0 0.0 0.00 0.00 0.00 53 996.4
20260904062115 78 294 0.0 0.0 0.00 0.00 0.00 53 996.3
20260904061611 78 315 0.0 0.0 0.00 0.00 0.00 53 996.2
20260904061111 78 266 0.0 0.0 0.00 0.00 0.00 53 996.5
20260904060611 78 315 0.0 0.0 0.00 0.00 0.00 53 996.5
20260904055111 78 135 0.0 0.0 0.00 0.00 0.00 54 996.5
20260904054611 78 297 0.0 0.0 0.00 0.00 0.00 53 996.4
20260904054111 78 224 0.0 0.0 0.00 0.00 0.00 53 996.4
20260904053611 78 297 0.0 0.0 0.00 0.00 0.00 53 996.6
20260904053111 78 299 0.0 0.0 0.00 0.00 0.00 52 996.8
20260904052611 78 37 0.0 0.0 0.00 0.00 0.00 52 996.6
20260904052111 78 235 0.0 0.0 0.00 0.00 0.00 52 996.6
20260904051611 78 44 0.0 0.0 0.00 0.00 0.00 52 996.6
20260904051111 78 242 0.0 0.0 0.00 0.00 0.00 52 996.7
20260904050611 78 37 0.0 0.0 0.00 0.00 0.00 52 996.6
20260904050113 79 309 0.0 0.0 0.00 0.00 0.00 51 996.8
20260904045611 79 269 0.0 0.0 0.00 0.00 0.00 51 996.7
20260904045111 79 315 0.0 0.0 0.00 0.00 0.00 52 996.8
20260904044611 79 224 0.0 0.0 0.00 0.00 0.00 51 997.0
20260904044111 79 315 0.0 0.0 0.00 0.00 0.00 52 997.1
20260904043611 79 254 0.0 0.0 0.00 0.00 0.00 52 997.1
20260904043111 79 309 0.0 0.0 0.00 0.00 0.00 53 996.9
20260904042611 79 246 0.0 0.0 0.00 0.00 0.00 53 997.3
20260904042111 79 297 0.0 0.0 0.00 0.00 0.00 53 997.3
20260904041611 79 309 0.0 0.0 0.00 0.00 0.00 53 997.1
20260904041111 79 306 0.0 0.0 0.00 0.00 0.00 52 997.2
20260904040611 79 269 0.0 0.0 0.00 0.00 0.00 51 997.3
20260904040111 79 284 0.0 0.0 0.00 0.00 0.00 52 997.3
20260904035611 79 315 0.0 0.0 0.00 0.00 0.00 51 997.6
20260904035111 79 117 0.0 0.0 0.00 0.00 0.00 51 997.3
20260904034611 79 293 0.0 0.0 0.00 0.00 0.00 52 997.3
20260904034111 79 44 0.0 0.0 0.00 0.00 0.00 51 997.5
20260904033611 79 224 0.0 0.0 0.00 0.00 0.00 51 997.5
20260904033111 79 281 0.0 0.0 0.00 0.00 0.00 52 997.5
20260904032610 79 322 0.0 0.0 0.00 0.00 0.00 52 997.7
20260904032111 79 135 0.0 0.0 0.00 0.00 0.00 52 997.6
20260904031611 79 44 0.0 0.0 0.00 0.00 0.00 52 997.6
20260904031111 79 326 0.0 0.0 0.00 0.00 0.00 52 997.8
20260904030611 79 293 0.0 0.0 0.00 0.00 0.00 52 997.7
20260904030111 79 242 0.0 0.0 0.00 0.00 0.00 53 997.6
20260904025611 79 333 0.0 0.0 0.00 0.00 0.00 52 997.9
20260904025111 79 135 0.0 0.0 0.00 0.00 0.00 52 997.6
20260904024611 79 315 0.0 0.0 0.00 0.00 0.00 52 997.7
20260904024111 79 242 0.0 0.0 0.00 0.00 0.00 53 997.8
20260904023611 79 230 0.0 0.0 0.00 0.00 0.00 53 997.6
20260904023111 79 217 0.0 0.0 0.00 0.00 0.00 53 997.8
20260904022611 79 269 0.0 0.0 0.00 0.00 0.00 53 997.8
20260904022111 79 224 0.0 0.0 0.00 0.00 0.00 53 997.6
20260904021611 79 293 0.0 0.0 0.00 0.00 0.00 53 997.7
20260904021111 79 44 0.0 0.0 0.00 0.00 0.00 54 997.7
20260904020611 79 304 0.0 0.0 0.00 0.00 0.00 54 997.6
20260904020111 79 304 0.0 0.0 0.00 0.00 0.00 54 997.5
20260904015611 79 306 0.0 0.0 0.00 0.00 0.00 55 997.5
20260904015111 79 322 0.0 0.0 0.00 0.00 0.00 54 997.5
20260904014612 79 269 0.0 0.0 0.00 0.00 0.00 56 997.3
20260904014111 79 299 0.0 0.0 0.00 0.00 0.00 57 997.5
20260904013611 79 212 0.0 0.0 0.00 0.00 0.00 55 997.2
20260904013111 79 44 0.0 0.0 0.00 0.00 0.00 57 997.5
20260904012611 79 233 0.0 0.0 0.00 0.00 0.00 58 997.5
20260904012111 79 240 0.0 0.0 0.00 0.00 0.00 58 997.4
20260904011611 79 246 0.0 0.0 0.00 0.00 0.00 59 997.5
20260904011111 79 126 0.0 0.0 0.00 0.00 0.00 59 997.5
20260904010612 79 117 0.0 0.0 0.00 0.00 0.00 60 997.5
20260904010112 79 315 0.0 0.0 0.00 0.00 0.00 60 997.4
20260904005611 79 25 0.0 0.0 0.00 0.00 0.00 59 997.4
20260904005111 79 44 0.0 0.0 0.00 0.00 0.00 58 997.2
20260904004611 80 297 0.0 0.0 0.00 0.00 0.00 57 997.3
20260904004111 80 37 0.0 0.0 0.00 0.00 0.00 57 997.3
20260904003611 80 44 0.0 0.0 0.00 0.00 0.00 58 997.3
20260904003111 80 44 0.0 0.0 0.00 0.00 0.00 57 997.4
20260904002611 80 50 0.0 0.0 0.00 0.00 0.00 58 997.1
20260904002111 81 315 0.0 0.0 0.00 0.00 0.00 59 997.2
20260904001611 81 239 0.0 0.0 0.00 0.00 0.00 60 996.7
20260904001111 81 283 0.0 0.0 0.00 0.00 0.00 61 997.0
20260904000611 82 37 0.0 0.0 0.00 0.00 0.00 65 997.0
20260904000111 81 279 0.0 0.0 0.00 0.00 0.00 66 996.9
20260903235611 81 224 0.0 0.0 0.00 0.00 0.00 66 997.1
20260903235111 81 297 0.0 0.0 0.00 0.00 0.00 66 997.0
20260903234611 81 269 0.0 0.0 0.00 0.00 0.00 66 997.1
20260903234111 81 44 0.0 0.0 0.00 0.00 0.00 66 996.8
20260903233611 81 242 0.0 0.0 0.00 0.00 0.00 65 996.9
20260903233111 81 287 0.0 0.0 0.00 0.00 0.00 65 996.7
20260903232611 81 30 0.0 0.0 0.00 0.00 0.00 65 996.7
20260903232111 81 255 0.0 0.0 0.00 0.00 0.00 65 996.5
20260903231611 81 325 0.0 0.0 0.00 0.00 0.00 65 996.4
20260903231111 81 44 0.0 0.0 0.00 0.00 0.00 65 996.5
20260903230611 81 25 0.0 0.0 0.00 0.00 0.00 65 996.4
20260903230111 81 343 0.0 0.0 0.00 0.00 0.00 65 996.1
20260903225611 81 129 0.0 0.0 0.00 0.00 0.00 65 996.2
20260903225110 81 124 0.0 0.0 0.00 0.00 0.00 65 996.3
20260903224611 81 322 0.0 0.0 0.00 0.00 0.00 65 996.0
20260903224111 81 269 0.0 0.0 0.00 0.00 0.00 65 996.0
20260903223611 81 309 0.0 0.0 0.00 0.00 0.00 65 996.0
20260903223111 81 283 0.0 0.0 0.00 0.00 0.00 65 996.0